• In Moldova, Republic
  • List of Countries
  • For 7 days
  • Water Temperature
  • Satellite Maps
  • Weather Map
  • Weather Widgets
  • user-avatar
    Login

    Hourly Weather Eisenstadt

    Today, 19 January, Thursday

    Time Temperature Precipitation Wind Pressure Humidity
    00:00 -12°C° 0 mm 2 mps 734 mmHg 94%
    01:00 -12°C° 0 mm 2 mps 734 mmHg 94%
    02:00 -13°C° 0 mm 2 mps 734 mmHg 94%
    03:00 -13°C° 0 mm 2 mps 734 mmHg 93%
    04:00 -14°C° 0 mm 2 mps 734 mmHg 93%
    05:00 -14°C° 0 mm 2 mps 734 mmHg 93%
    06:00 -14°C° 0 mm 2 mps 734 mmHg 93%
    07:00 -15°C° 0 mm 2 mps 734 mmHg 92%
    08:00 -13°C° 0 mm 2 mps 734 mmHg 90%
    09:00 -10°C° 0 mm 2 mps 735 mmHg 88%
    10:00 -7°C° 0 mm 1 mps 735 mmHg 85%
    11:00 -6°C° 0 mm 1 mps 735 mmHg 84%
    12:00 -4°C° 0 mm 1 mps 735 mmHg 82%
    13:00 -3°C° 0 mm 1 mps 735 mmHg 81%
    14:00 -6°C° 0 mm 1 mps 734 mmHg 84%
    15:00 -7°C° 0 mm 1 mps 734 mmHg 87%
    16:00 -9°C° 0 mm 1 mps 734 mmHg 90%
    17:00 -10°C° 0 mm 1 mps 734 mmHg 91%
    18:00 -12°C° 0 mm 1 mps 734 mmHg 92%
    19:00 -13°C° 0 mm 1 mps 734 mmHg 93%
    20:00 -13°C° 0 mm 1 mps 734 mmHg 93%
    21:00 -13°C° 0 mm 0 mps 734 mmHg 94%
    22:00 -13°C° 0 mm 0 mps 734 mmHg 94%
    23:00 -13°C° 0 mm 0 mps 734 mmHg 94%

    Tomorrow, 20 January, Friday

    Time Temperature Precipitation Wind Pressure Humidity
    00:00 -13°C° 0 mm 0 mps 734 mmHg 94%
    01:00 -13°C° 0 mm 0 mps 734 mmHg 94%
    02:00 -13°C° 0 mm 0 mps 734 mmHg 94%
    03:00 -13°C° 0 mm 0 mps 734 mmHg 94%
    04:00 -13°C° 0 mm 0 mps 734 mmHg 94%
    05:00 -13°C° 0 mm 1 mps 734 mmHg 92%
    06:00 -13°C° 0 mm 1 mps 734 mmHg 91%
    07:00 -12°C° 0 mm 1 mps 734 mmHg 90%
    08:00 -10°C° 0 mm 1 mps 734 mmHg 87%
    09:00 -8°C° 0 mm 1 mps 735 mmHg 85%
    10:00 -6°C° 0 mm 1 mps 735 mmHg 83%
    11:00 -4°C° 0 mm 1 mps 735 mmHg 82%
    12:00 -5°C° 0 mm 2 mps 735 mmHg 82%
    13:00 -4°C° 0 mm 2 mps 734 mmHg 81%
    14:00 -5°C° 0 mm 2 mps 734 mmHg 84%
    15:00 -6°C° 0 mm 2 mps 734 mmHg 87%
    16:00 -7°C° 0 mm 2 mps 734 mmHg 90%
    17:00 -8°C° 0 mm 2 mps 733 mmHg 91%
    18:00 -9°C° 0 mm 2 mps 733 mmHg 92%
    19:00 -10°C° 0 mm 2 mps 733 mmHg 92%
    20:00 -10°C° 0 mm 2 mps 733 mmHg 93%
    21:00 -12°C° 0 mm 2 mps 733 mmHg 93%
    22:00 -12°C° 0 mm 2 mps 733 mmHg 93%
    23:00 -12°C° 0 mm 2 mps 733 mmHg 94%

    Day after tomorrow, 21 January, Saturday

    Time Temperature Precipitation Wind Pressure Humidity
    00:00 -12°C° 0 mm 2 mps 733 mmHg 94%
    01:00 -12°C° 0 mm 2 mps 733 mmHg 94%
    02:00 -12°C° 0 mm 2 mps 732 mmHg 94%
    03:00 -12°C° 0 mm 2 mps 732 mmHg 95%
    04:00 -13°C° 0 mm 2 mps 732 mmHg 95%
    05:00 -13°C° 0 mm 2 mps 732 mmHg 95%
    06:00 -11°C° 0 mm 1 mps 732 mmHg 96%
    07:00 -12°C° 0 mm 1 mps 732 mmHg 96%
    08:00 -10°C° 0 mm 1 mps 732 mmHg 94%
    09:00 -8°C° 0 mm 1 mps 732 mmHg 93%
    10:00 -6°C° 0 mm 1 mps 733 mmHg 91%
    11:00 -4°C° 0 mm 1 mps 733 mmHg 89%
    12:00 -5°C° 0 mm 2 mps 733 mmHg 88%
    13:00 -4°C° 0 mm 2 mps 732 mmHg 87%
    14:00 -5°C° 0 mm 2 mps 732 mmHg 89%
    15:00 -5°C° 0 mm 2 mps 732 mmHg 91%
    16:00 -4°C° 0 mm 1 mps 732 mmHg 93%
    17:00 -6°C° 0 mm 1 mps 732 mmHg 94%
    18:00 -7°C° 0 mm 1 mps 732 mmHg 95%
    19:00 -9°C° 0 mm 1 mps 732 mmHg 96%
    20:00 -10°C° 0 mm 2 mps 732 mmHg 96%
    21:00 -10°C° 0 mm 2 mps 732 mmHg 96%
    22:00 -9°C° 0 mm 2 mps 733 mmHg 96%
    23:00 -9°C° 0 mm 2 mps 733 mmHg 96%

    22 January, Sunday

    Time Temperature Precipitation Wind Pressure Humidity
    00:00 -9°C° 0 mm 2 mps 733 mmHg 96%
    01:00 -9°C° 0 mm 2 mps 733 mmHg 96%
    02:00 -9°C° 0 mm 2 mps 733 mmHg 96%
    03:00 -9°C° 0 mm 2 mps 733 mmHg 95%
    04:00 -9°C° 0 mm 2 mps 732 mmHg 95%
    05:00 -9°C° 0 mm 2 mps 732 mmHg 95%
    06:00 -9°C° 0 mm 2 mps 733 mmHg 95%
    07:00 -9°C° 0 mm 2 mps 733 mmHg 95%
    08:00 -9°C° 0 mm 3 mps 733 mmHg 93%
    09:00 -8°C° 0 mm 3 mps 733 mmHg 91%
    10:00 -7°C° 0 mm 3 mps 733 mmHg 90%
    11:00 -6°C° 0 mm 3 mps 733 mmHg 88%
    12:00 -5°C° 0 mm 3 mps 733 mmHg 86%
    13:00 -5°C° 0 mm 3 mps 732 mmHg 84%
    14:00 -5°C° 0 mm 3 mps 732 mmHg 86%
    15:00 -6°C° 0 mm 3 mps 732 mmHg 88%
    16:00 -7°C° 0 mm 3 mps 732 mmHg 90%
    17:00 -8°C° 0 mm 3 mps 731 mmHg 91%
    18:00 -9°C° 0 mm 3 mps 731 mmHg 92%
    19:00 -10°C° 0 mm 3 mps 731 mmHg 93%
    20:00 -10°C° 0 mm 3 mps 731 mmHg 93%
    21:00 -10°C° 0 mm 3 mps 731 mmHg 93%
    22:00 -10°C° 0 mm 3 mps 731 mmHg 94%
    23:00 -10°C° 0 mm 3 mps 731 mmHg 94%

    23 January, Monday

    Time Temperature Precipitation Wind Pressure Humidity
    00:00 -10°C° 0 mm 3 mps 731 mmHg 94%
    01:00 -10°C° 0 mm 3 mps 730 mmHg 95%
    02:00 -12°C° 0 mm 3 mps 730 mmHg 95%
    03:00 -12°C° 0 mm 3 mps 730 mmHg 95%
    04:00 -12°C° 0 mm 3 mps 729 mmHg 95%
    05:00 -12°C° 0 mm 2 mps 729 mmHg 96%
    06:00 -12°C° 0 mm 2 mps 729 mmHg 96%
    07:00 -12°C° 0 mm 2 mps 729 mmHg 96%
    08:00 -10°C° 0 mm 2 mps 729 mmHg 94%
    09:00 -8°C° 0 mm 2 mps 729 mmHg 92%
    10:00 -7°C° 0 mm 2 mps 729 mmHg 91%
    11:00 -6°C° 0 mm 2 mps 729 mmHg 90%
    12:00 -5°C° 0 mm 2 mps 729 mmHg 89%
    13:00 -4°C° 0 mm 2 mps 728 mmHg 87%
    14:00 -5°C° 0 mm 2 mps 728 mmHg 90%
    15:00 -3°C° 0 mm 1 mps 727 mmHg 92%
    16:00 -4°C° 0 mm 1 mps 727 mmHg 94%
    17:00 -6°C° 0 mm 1 mps 727 mmHg 95%
    18:00 -8°C° 0 mm 1 mps 726 mmHg 96%
    19:00 -9°C° 0 mm 1 mps 726 mmHg 97%
    20:00 -9°C° 0 mm 1 mps 726 mmHg 97%
    21:00 -9°C° 0 mm 1 mps 726 mmHg 98%
    22:00 -10°C° 0 mm 0 mps 726 mmHg 98%
    23:00 -9°C° 0 mm 1 mps 726 mmHg 98%

    24 January, Tuesday

    Time Temperature Precipitation Wind Pressure Humidity
    00:00 -9°C° 0 mm 1 mps 726 mmHg 98%
    01:00 -8°C° 0 mm 1 mps 726 mmHg 98%
    02:00 -9°C° 0 mm 1 mps 725 mmHg 98%
    03:00 -9°C° 0 mm 1 mps 725 mmHg 98%
    04:00 -10°C° 0 mm 1 mps 725 mmHg 98%
    05:00 -10°C° 0 mm 2 mps 725 mmHg 98%
    06:00 -9°C° 0 mm 2 mps 725 mmHg 97%
    07:00 -8°C° 0 mm 2 mps 725 mmHg 97%
    08:00 -7°C° 0 mm 2 mps 726 mmHg 95%
    09:00 -7°C° 0 mm 2 mps 726 mmHg 93%
    10:00 -6°C° 0 mm 2 mps 726 mmHg 91%
    11:00 -5°C° 0 mm 2 mps 726 mmHg 90%
    12:00 -5°C° 0 mm 3 mps 726 mmHg 88%
    13:00 -4°C° 0 mm 3 mps 726 mmHg 86%
    14:00 -5°C° 0 mm 3 mps 725 mmHg 87%
    15:00 -6°C° 0 mm 3 mps 725 mmHg 88%
    16:00 -7°C° 0 mm 3 mps 725 mmHg 90%
    17:00 -8°C° 0 mm 3 mps 726 mmHg 90%
    18:00 -9°C° 0 mm 3 mps 726 mmHg 91%
    19:00 -11°C° 0 mm 4 mps 726 mmHg 91%
    20:00 -11°C° 0 mm 4 mps 726 mmHg 91%
    21:00 -11°C° 0 mm 4 mps 727 mmHg 91%
    22:00 -11°C° 0 mm 4 mps 727 mmHg 91%
    23:00 -11°C° 0 mm 4 mps 727 mmHg 91%
    Show more